Starlink 31597

operational
NORAD ID: 59464 Int'l Des: 2024-068 Owner: SPXS Country: US Constellation: starlink
LEOCIRCULAR

Starlink 31597について

説明を読み込み中...

リアルタイム位置

3D地球を読み込み中...

次回通過

高度履歴

Altitude vs Time

uPlot chart will show altitude changes over time

軌道要素

1 59464U 24068K 25303.70939880 .00000827 00000-0 39585-4 0 9996
2 59464 43.0008 48.6026 0001576 262.7654 97.3019 15.27586037 88595
Epoch: Oct 30, 2025 • Age: 25 hours

現在のステータス

高度 482.3 km
速度 7.63 km/s
衛星直下点 10.86°N, 101.14°E
打ち上げ日 Apr 10, 2024
運用期間 1.5 years
タイプ internet

技術仕様

分類 Payload
質量 730.00 kg
乾燥質量 700.00 kg
総質量 730.00 kg
長さ 0.30 m
直径 4.10 m
スパン 29.00 m
形状 Box + pan
製造者 SPXS
バスタイプ Starlink V2M
フェーズステータス In Orbit
所有者/国 SPXS/US

大規模コンステレーション

Loading constellations...